Orbital Elements at Epoch 2459200.5 (2020-Dec-17.0) TDB
Reference: JPL 31 (heliocentric ecliptic J2000)
Element | Value | Uncertainty (1-sigma) | Units |
e | .1421582494032257 | 3.0391e-08 | |
a | 2.152156206790905 | 6.1277e-09 | au |
q | 1.846209447991223 | 6.4613e-08 | au |
i | 3.247959902447504 | 4.1227e-06 | deg |
node | 44.27174435992007 | 5.815e-05 | deg |
peri | 262.3580033335447 | 6.1336e-05 | deg |
M | 307.8277900165951 | 2.2229e-05 | deg |
tp | 2459367.626702543435 (2021-Jun-02.12670254) | 7.1548e-05 | TDB |
period | 1153.211890674636 3.16 | 4.9252e-06 1.348e-08 | d yr |
n | .3121715990886965 | 1.3332e-09 | deg/d |
Q | 2.458102965590586 | 6.9988e-09 | au |
|
| | Orbit Determination Parameters
Additional Information
|